Location: Lane
(33.5226°N, 79.8788°W)
Time: 20:01:26
(UTC+00:00)

Courier 1B Rocket - Pass Details

Date: 12 October 2022
Orbit: 920 x 1202 km, 28.3° (Epoch: 01 December)

Event Time Altitude Azimuth Distance (km) Brightness Sun altitude
Rises 21:07:11 0° 253° (WSW) 4,066 9.8 19.6°
Reaches altitude 10° 21:10:08 10° 249° (WSW) 3,081 10.1 19.1°
Maximum altitude 21:17:33 55° 174° (S) 1,330 6.1 17.6°
Drops below altitude 10° 21:24:32 10° 98° (E) 2,902 7.0 16.3°
Sets 21:27:14 0° 94° (E) 3,815 7.5 15.7°
